#timestamp,LO_Frequency,Hit,StdDev 
1586509215.1,286046979.2,N
1586509235.9,286046981.7,N
1586509255.7,286046980.8,N
1586509275.5,286046972.7,N
1586509295.4,286046964.5,Y
1586509315.2,286046975.4,P
1586509335.0,286046969.4,P
1586509335.9,286046969.4,P
1586509355.8,286046969.0,Y
1586509375.6,286046990.0,P
1586509395.5,286046982.1,N
1586509415.3,286046980.6,P
1586509435.1,286046981.1,Y
1586509455.9,286047002.5,P
1586509475.7,286047003.4,N
1586509495.6,286047002.2,N
1586509515.4,286046996.9,N
1586509535.2,286046994.5,N
1586509555.1,286046992.9,N
1586509556.0,286046992.9,N
1586509575.8,286046993.9,N
1586509595.7,286046995.9,N
1586509615.5,286046992.4,N
1586509635.3,286046993.8,N
1586509655.2,286046997.7,N
1586509675.9,286047003.2,N
1586509695.7,286047008.3,N
1586509715.6,286047013.9,N
1586509735.4,286047016.9,N
1586509755.3,286047021.4,N
1586509775.1,286047023.0,N
1586509776.0,286047023.0,N
1586509795.8,286047021.2,N
1586509815.7,286047019.1,N
1586509835.5,286047023.6,N
1586509855.3,286047024.0,N
1586509875.2,286047024.5,N
1586509895.0,286047022.6,N
1586509895.9,286047022.6,N
1586509915.8,286047018.0,N
1586509935.6,286047013.0,N
1586509955.5,286047011.0,N
1586509975.3,286047010.9,N
1586509995.1,286047006.2,N
1586510015.9,286046997.5,N
1586510035.7,286046987.6,N
1586510055.5,286046979.6,N
1586510075.4,286046972.9,N
1586510095.2,286046971.9,N
1586510115.1,286046976.6,N
1586510116.0,286046976.6,N
1586510135.8,286046981.9,N
1586510155.6,286046984.4,N
1586510175.5,286046989.6,N
1586510195.3,286046991.9,N
1586510215.2,286046997.0,N
1586510235.9,286046998.5,N
1586510255.7,286046998.2,N
1586510275.6,286047000.5,N
1586510295.4,286046996.6,N
1586510315.2,286046996.3,N
1586510335.1,286046987.3,N
1586510336.0,286046987.3,N
1586510355.8,286046981.3,N
1586510375.7,286046979.8,N
1586510395.5,286046978.8,N
1586510415.3,286046972.4,N
1586510435.2,286046967.7,N
1586510455.9,286046966.7,N
1586510475.7,286046964.3,N
1586510495.6,286046961.8,N
1586510515.4,286046962.6,N
1586510535.2,286046963.1,N
1586510555.1,286046969.0,N
1586510556.0,286046969.0,N
1586510575.8,286046972.7,N
1586510595.7,286046976.7,N
1586510615.5,286046974.0,N
1586510635.3,286046968.3,N
1586510655.2,286046973.6,N
1586510675.0,286046975.9,N
1586510675.9,286046975.9,N
1586510695.8,286046968.1,N
1586510715.6,286046957.2,Y
1586510735.4,286046967.8,P
1586510755.3,286046962.5,P
1586510775.1,286046955.3,P
1586510795.8,286046952.6,Y
1586510815.7,286046984.7,P
1586510835.5,286046982.0,N
1586510855.4,286046974.4,P
1586510875.2,286046975.5,Y
1586510895.0,286047004.4,P
1586510895.9,286047004.4,N
1586510915.8,286047003.8,N
1586510935.6,286047003.1,N
1586510955.4,286047004.4,N
1586510975.3,286047000.3,N
1586510995.1,286046995.9,N
1586511015.9,286046992.9,N
1586511035.7,286046989.2,N
1586511055.5,286046984.8,N
1586511075.4,286046980.2,N
1586511095.2,286046978.6,N
1586511115.0,286046974.1,N
1586511115.9,286046974.1,N
1586511135.8,286046971.6,N
1586511155.6,286046972.1,N
1586511175.5,286046965.0,N
1586511195.3,286046961.8,N
1586511215.1,286046961.5,N
1586511235.9,286046969.8,N
1586511255.7,286046976.7,N
1586511275.5,286046977.2,N
1586511295.4,286046974.4,N
1586511315.2,286046971.6,N
1586511335.1,286046969.5,N
1586511336.0,286046969.5,N
1586511355.8,286046969.8,N
1586511375.6,286046968.7,N
1586511395.5,286046965.5,N
1586511415.3,286046964.2,N
1586511435.2,286046962.3,N
1586511455.9,286046967.5,N
1586511475.7,286046972.1,N
1586511495.6,286046979.2,N
1586511515.4,286046981.2,N
1586511535.2,286046983.5,N
1586511555.1,286046991.1,N
1586511556.0,286046991.1,N
1586511575.8,286046998.5,N
1586511595.7,286047003.2,N
1586511615.5,286047007.4,N
1586511635.3,286047008.1,N
1586511655.2,286047010.3,N
1586511675.9,286047004.1,N
1586511695.7,286046998.0,N
1586511715.6,286046988.7,N
1586511735.4,286046981.7,N
1586511755.3,286046978.6,N
1586511775.1,286046974.0,N
1586511776.0,286046974.0,N
1586511795.8,286046966.9,N
1586511815.7,286046961.4,N
1586511835.5,286046961.1,N
1586511855.3,286046958.3,N
1586511875.2,286046958.2,N
1586511895.0,286046961.4,N
1586511895.9,286046961.4,N
1586511915.8,286046961.9,N
1586511935.6,286046957.3,N
1586511955.4,286046952.5,N
1586511975.3,286046956.3,N
1586511995.1,286046960.7,N
1586512015.8,286046958.1,N
1586512035.7,286046958.6,N
1586512055.5,286046957.5,N
1586512075.4,286046954.3,N
1586512095.2,286046954.2,N
1586512115.0,286046961.5,N
1586512115.9,286046961.5,N
1586512135.8,286046967.0,N
1586512155.6,286046967.4,N
1586512175.5,286046969.5,N
1586512195.3,286046973.7,N
1586512215.1,286046975.0,N
1586512235.9,286046972.9,N
1586512255.7,286046973.5,Y
1586512275.6,286047010.6,P
1586512295.4,286047010.9,N
1586512315.2,286047015.5,N
1586512335.1,286047016.5,N
1586512336.0,286047016.5,N
1586512355.8,286047013.6,N
1586512375.7,286047010.2,N
1586512395.5,286047006.6,N
1586512415.3,286047001.3,N
1586512435.2,286046994.9,N
1586512455.9,286046995.7,N
1586512475.7,286046987.7,N
1586512495.6,286046979.7,N
1586512515.4,286046969.7,N
1586512535.2,286046963.5,N
1586512555.1,286046969.0,N
1586512556.0,286046969.0,N
1586512575.8,286046976.7,N
1586512595.7,286046980.0,N
1586512615.5,286046984.0,N
1586512635.3,286046990.9,N
1586512655.2,286046991.8,N
1586512675.0,286046996.4,N
1586512675.9,286046996.4,N
1586512695.8,286046999.1,N
1586512715.6,286046997.4,N
1586512735.4,286046995.0,N
1586512755.3,286046995.1,N
1586512775.1,286046988.8,N
1586512795.8,286046980.8,N
